Location: Downe
(51.3167°N, 0.0500°E)
Time: 17:54:51
(UTC+00:00)

H-2A R/B - Pass Details

Date: 17 November 2019
Orbit: 530 x 653 km, 98.3° (Epoch: 14 December)

Event Time Altitude Azimuth Distance (km) Brightness Sun altitude
Rises 05:05:57 0° 10° (N) 2,985 6.1 -20.6°
Reaches altitude 10° 05:08:15 10° 3° (N) 2,073 5.2 -20.3°
Enters shadow 05:12:27 43° 296° (WNW) 923 3.0 -19.6°
